TimeCST,TemperatureF,Dew PointF,Humidity,Sea Level PressureIn,VisibilityMPH,Wind Direction,Wind SpeedMPH,Gust SpeedMPH,PrecipitationIn,Events,Conditions,WindDirDegrees,DateUTC
12:54 AM,43.0,30.9,62,30.36,10.0,South,8.1,-,N/A,,Overcast,180,2012-11-14 06:54:00
1:54 AM,42.1,32.0,67,30.36,10.0,South,6.9,-,N/A,,Overcast,170,2012-11-14 07:54:00
2:54 AM,39.9,32.0,73,30.36,10.0,SSE,5.8,-,N/A,,Overcast,160,2012-11-14 08:54:00
3:54 AM,41.0,32.0,70,30.35,10.0,South,8.1,-,N/A,,Overcast,170,2012-11-14 09:54:00
4:54 AM,39.0,32.0,76,30.36,10.0,South,8.1,-,N/A,,Overcast,170,2012-11-14 10:54:00
5:54 AM,37.0,30.0,76,30.36,10.0,South,5.8,-,N/A,,Partly Cloudy,170,2012-11-14 11:54:00
6:54 AM,36.0,30.0,79,30.37,10.0,South,9.2,-,N/A,,Partly Cloudy,170,2012-11-14 12:54:00
7:54 AM,39.0,30.9,73,30.37,10.0,South,6.9,-,N/A,,Partly Cloudy,190,2012-11-14 13:54:00
8:54 AM,44.1,30.0,58,30.37,10.0,SSW,10.4,-,N/A,,Partly Cloudy,210,2012-11-14 14:54:00
9:54 AM,48.0,28.9,48,30.37,10.0,SSW,6.9,-,N/A,,Partly Cloudy,200,2012-11-14 15:54:00
10:54 AM,53.1,28.9,40,30.35,10.0,SSW,11.5,-,N/A,,Clear,200,2012-11-14 16:54:00
11:54 AM,55.9,26.1,32,30.32,10.0,SW,15.0,-,N/A,,Clear,220,2012-11-14 17:54:00
12:54 PM,57.9,26.1,30,30.30,10.0,SSW,15.0,20.7,N/A,,Partly Cloudy,210,2012-11-14 18:54:00
1:54 PM,57.9,24.1,27,30.28,10.0,SSW,12.7,21.9,N/A,,Scattered Clouds,200,2012-11-14 19:54:00
2:54 PM,57.0,24.1,28,30.27,10.0,SSW,16.1,-,N/A,,Overcast,210,2012-11-14 20:54:00
3:54 PM,55.9,24.1,29,30.27,10.0,SSW,12.7,-,N/A,,Overcast,200,2012-11-14 21:54:00
4:54 PM,51.1,25.0,36,30.27,10.0,South,5.8,-,N/A,,Mostly Cloudy,190,2012-11-14 22:54:00
5:54 PM,46.9,26.1,44,30.27,10.0,South,5.8,-,N/A,,Overcast,170,2012-11-14 23:54:00
6:54 PM,46.0,25.0,44,30.27,10.0,South,6.9,-,N/A,,Overcast,170,2012-11-15 00:54:00
7:54 PM,45.0,25.0,46,30.27,10.0,South,9.2,-,N/A,,Mostly Cloudy,170,2012-11-15 01:54:00
8:54 PM,44.1,26.1,49,30.27,10.0,South,9.2,-,N/A,,Overcast,170,2012-11-15 02:54:00
9:54 PM,44.1,27.0,51,30.27,10.0,South,6.9,-,N/A,,Overcast,180,2012-11-15 03:54:00
10:54 PM,44.1,27.0,51,30.27,10.0,South,8.1,-,N/A,,Overcast,180,2012-11-15 04:54:00
11:54 PM,43.0,28.0,56,30.27,10.0,South,6.9,-,N/A,,Overcast,180,2012-11-15 05:54:00